QTR1186 OTHH-OEJN

Flight info

Callsign QTR1186
Flight time 1h 59m
Altitude 40000
Route ULIKA M430 KSA G782 RGB M309 VEMEM
Aircraft A35K/H-SDE2E3GHIJ3J4J5LM1ORWXY/LB1D1

Departure

Time 2026-05-04 10:54
Airport Hamad International Airport (OTHH)

Arrival

Time 2026-05-04 12:53
Airport King Abdulaziz International Airport (OEJN)
Time Latitude Longitude Altitude Speed Heading
2026-05-04 10:33 25.26325 51.61825 36 ft 0 kts 248°
2026-05-04 10:35 25.26325 51.61826 36 ft 0 kts 248°
2026-05-04 10:44 25.26326 51.61827 36 ft 0 kts 248°
2026-05-04 10:45 25.26327 51.61829 36 ft 1 kts 248°
2026-05-04 10:45 25.26328 51.61834 36 ft 1 kts 248°
2026-05-04 10:46 25.26332 51.61833 36 ft 4 kts 276°
2026-05-04 10:46 25.26338 51.61858 33 ft 4 kts 253°
2026-05-04 10:46 25.26341 51.61887 32 ft 4 kts 280°
2026-05-04 10:46 25.26331 51.61912 33 ft 4 kts 321°
2026-05-04 10:47 25.26317 51.61921 36 ft 0 kts 338°
2026-05-04 10:47 25.26314 51.61923 36 ft 0 kts 338°
2026-05-04 10:49 25.26437 51.61868 36 ft 15 kts 338°
2026-05-04 10:49 25.26526 51.61889 36 ft 15 kts 56°
2026-05-04 10:50 25.26561 51.61995 35 ft 3 kts 101°
2026-05-04 10:51 25.25752 51.62383 35 ft 22 kts 158°
2026-05-04 10:52 25.25595 51.62452 34 ft 26 kts 158°
2026-05-04 10:52 25.25516 51.62493 34 ft 10 kts 134°
2026-05-04 10:52 25.25518 51.62567 33 ft 11 kts 56°
2026-05-04 10:54 25.29595 51.60875 1958 ft 183 kts 338°
2026-05-04 10:54 25.30857 51.60330 2217 ft 208 kts 338°
2026-05-04 10:56 25.42381 51.61699 6563 ft 264 kts 359°
2026-05-04 10:56 25.44195 51.61392 7432 ft 266 kts 339°
2026-05-04 10:56 25.45753 51.60345 8357 ft 269 kts 316°
2026-05-04 10:57 25.46775 51.58606 9347 ft 275 kts 290°
2026-05-04 10:57 25.47005 51.56499 10300 ft 282 kts 269°
2026-05-04 10:57 25.46608 51.54287 10812 ft 307 kts 257°
2026-05-04 10:57 25.46098 51.51895 11212 ft 330 kts 260°
2026-05-04 10:58 25.45609 51.49377 11939 ft 339 kts 259°
2026-05-04 10:58 25.45101 51.46805 12789 ft 345 kts 259°
2026-05-04 10:58 25.44562 51.44199 13679 ft 351 kts 258°
2026-05-04 10:58 25.43990 51.41559 14507 ft 354 kts 258°
2026-05-04 10:59 25.43397 51.38907 15375 ft 357 kts 257°
2026-05-04 10:59 25.42788 51.36236 16255 ft 359 kts 256°
2026-05-04 10:59 25.42170 51.33545 17079 ft 364 kts 256°
2026-05-04 10:59 25.41538 51.30796 17835 ft 370 kts 256°
2026-05-04 11:00 25.40904 51.28042 18577 ft 375 kts 255°
2026-05-04 11:01 25.36254 51.07806 23975 ft 402 kts 256°
2026-05-04 11:02 25.35572 51.04843 24705 ft 404 kts 256°
2026-05-04 11:02 25.34867 51.01790 25474 ft 405 kts 256°
2026-05-04 11:05 25.26101 50.57229 33815 ft 448 kts 268°
2026-05-04 11:06 25.26039 50.53777 34212 ft 450 kts 268°
2026-05-04 11:06 25.25998 50.50313 34671 ft 450 kts 269°
2026-05-04 11:06 25.26023 50.46903 35257 ft 448 kts 270°
2026-05-04 11:06 25.26111 50.43475 35842 ft 445 kts 271°
2026-05-04 11:08 25.26707 50.19787 39194 ft 435 kts 269°
2026-05-04 11:10 25.27136 49.96374 39819 ft 438 kts 269°
2026-05-04 11:12 25.27591 49.69497 39818 ft 438 kts 269°
2026-05-04 11:12 25.27697 49.62771 39828 ft 438 kts 269°
2026-05-04 11:13 25.27800 49.56042 39834 ft 438 kts 269°
2026-05-04 11:13 25.27868 49.49320 39833 ft 437 kts 266°
2026-05-04 11:16 25.24963 49.15984 39836 ft 436 kts 262°
2026-05-04 11:16 25.24353 49.09372 39844 ft 436 kts 262°
2026-05-04 11:17 25.23735 49.02699 39845 ft 436 kts 262°
2026-05-04 11:19 25.21232 48.76027 39844 ft 437 kts 262°
2026-05-04 11:19 25.20599 48.69356 39862 ft 437 kts 262°
2026-05-04 11:20 25.19963 48.62692 39857 ft 436 kts 262°
2026-05-04 11:20 25.19326 48.56033 39866 ft 436 kts 262°
2026-05-04 11:22 25.16747 48.29478 39877 ft 436 kts 262°
2026-05-04 11:23 25.16093 48.22814 39880 ft 436 kts 262°
2026-05-04 11:25 25.13782 47.99540 39885 ft 436 kts 262°
2026-05-04 11:25 25.13226 47.94011 39902 ft 436 kts 262°
2026-05-04 11:27 25.09897 47.64130 39905 ft 435 kts 260°
2026-05-04 11:28 25.09109 47.57558 39909 ft 435 kts 260°
2026-05-04 11:28 25.08319 47.50932 39913 ft 435 kts 260°
2026-05-04 11:29 25.07528 47.44319 39919 ft 435 kts 260°
2026-05-04 11:29 25.06731 47.37686 39922 ft 435 kts 260°
2026-05-04 11:33 25.01081 46.91396 39936 ft 436 kts 260°
2026-05-04 11:33 25.00259 46.84766 39938 ft 436 kts 260°
2026-05-04 11:34 24.99436 46.78147 39936 ft 436 kts 260°
2026-05-04 11:34 24.98589 46.71567 39945 ft 435 kts 257°
2026-05-04 11:35 24.96800 46.65242 39939 ft 431 kts 244°
2026-05-04 11:35 24.93816 46.59515 39938 ft 431 kts 238°
2026-05-04 11:36 24.90565 46.53947 39939 ft 433 kts 237°
2026-05-04 11:36 24.87288 46.48412 39945 ft 434 kts 237°
2026-05-04 11:37 24.84011 46.42836 39945 ft 434 kts 238°
2026-05-04 11:37 24.80740 46.37243 39950 ft 434 kts 238°
2026-05-04 11:38 24.77477 46.31662 39951 ft 433 kts 238°
2026-05-04 11:38 24.74209 46.26080 39953 ft 433 kts 238°
2026-05-04 11:39 24.70967 46.20549 39952 ft 433 kts 238°
2026-05-04 11:41 24.59500 46.01044 39942 ft 434 kts 238°
2026-05-04 11:41 24.56241 45.95514 39939 ft 434 kts 238°
2026-05-04 11:42 24.52961 45.89955 39930 ft 433 kts 238°
2026-05-04 11:42 24.49680 45.84401 39932 ft 434 kts 238°
2026-05-04 11:43 24.46396 45.78843 39933 ft 433 kts 238°
2026-05-04 11:43 24.43534 45.73033 39927 ft 433 kts 243°
2026-05-04 11:44 24.40872 45.67099 39924 ft 433 kts 244°
2026-05-04 11:44 24.38245 45.61156 39925 ft 433 kts 244°
2026-05-04 11:45 24.35612 45.55214 39923 ft 433 kts 244°
2026-05-04 11:45 24.32972 45.49284 39926 ft 433 kts 244°
2026-05-04 11:46 24.30339 45.43387 39929 ft 433 kts 244°
2026-05-04 11:46 24.27692 45.37464 39925 ft 433 kts 244°
2026-05-04 11:47 24.25040 45.31540 39924 ft 432 kts 244°
2026-05-04 11:47 24.22392 45.25629 39925 ft 432 kts 244°
2026-05-04 11:48 24.19739 45.19714 39909 ft 432 kts 244°
2026-05-04 11:48 24.17081 45.13799 39937 ft 433 kts 244°
2026-05-04 11:49 24.14413 45.07868 39932 ft 433 kts 243°
2026-05-04 11:49 24.11742 45.01943 39937 ft 433 kts 243°
2026-05-04 11:50 24.09090 44.96066 39945 ft 433 kts 243°
2026-05-04 11:50 24.06420 44.90157 39940 ft 432 kts 243°
2026-05-04 11:51 24.03753 44.84263 39941 ft 432 kts 243°
2026-05-04 11:51 24.01082 44.78366 39945 ft 432 kts 243°
2026-05-04 11:52 23.98409 44.72474 39936 ft 433 kts 243°
2026-05-04 11:52 23.95726 44.66565 39946 ft 434 kts 243°
2026-05-04 11:53 23.93069 44.60685 39963 ft 434 kts 245°
2026-05-04 11:53 23.90790 44.54573 39950 ft 433 kts 248°
2026-05-04 11:55 23.82137 44.29960 39938 ft 433 kts 248°
2026-05-04 11:56 23.79981 44.23861 39929 ft 433 kts 248°
2026-05-04 11:56 23.77807 44.17720 39926 ft 432 kts 248°
2026-05-04 11:57 23.75640 44.11602 39907 ft 432 kts 248°
2026-05-04 11:57 23.73465 44.05474 39926 ft 434 kts 248°
2026-05-04 11:58 23.71279 43.99324 39918 ft 433 kts 248°
2026-05-04 11:58 23.69097 43.93192 39924 ft 433 kts 248°
2026-05-04 11:59 23.66914 43.87068 39934 ft 433 kts 248°
2026-05-04 11:59 23.64743 43.80984 39936 ft 433 kts 248°
2026-05-04 12:00 23.62556 43.74866 39944 ft 433 kts 248°
2026-05-04 12:00 23.60363 43.68739 39935 ft 434 kts 248°
2026-05-04 12:01 23.58163 43.62604 39955 ft 434 kts 248°
2026-05-04 12:02 23.50469 43.41205 39964 ft 434 kts 248°
2026-05-04 12:03 23.48259 43.35078 39963 ft 434 kts 248°
2026-05-04 12:03 23.46046 43.28954 39972 ft 434 kts 248°
2026-05-04 12:04 23.43847 43.22876 39981 ft 434 kts 248°
2026-05-04 12:04 23.41630 43.16757 39983 ft 433 kts 248°
2026-05-04 12:05 23.39418 43.10659 39993 ft 433 kts 248°
2026-05-04 12:05 23.37203 43.04571 39986 ft 433 kts 248°
2026-05-04 12:06 23.34984 42.98479 39997 ft 432 kts 247°
2026-05-04 12:06 23.32766 42.92397 39994 ft 432 kts 247°
2026-05-04 12:07 23.30559 42.86358 39996 ft 432 kts 247°
2026-05-04 12:07 23.28340 42.80291 39984 ft 432 kts 248°
2026-05-04 12:08 23.26107 42.74194 39999 ft 434 kts 247°
2026-05-04 12:08 23.23870 42.68095 39999 ft 434 kts 247°
2026-05-04 12:09 23.21626 42.61986 39999 ft 434 kts 247°
2026-05-04 12:09 23.19385 42.55890 40003 ft 434 kts 247°
2026-05-04 12:10 23.17156 42.49837 40002 ft 433 kts 247°
2026-05-04 12:10 23.14910 42.43750 40001 ft 434 kts 247°
2026-05-04 12:11 23.12658 42.37650 40004 ft 435 kts 247°
2026-05-04 12:11 23.10447 42.31581 40010 ft 434 kts 248°
2026-05-04 12:12 23.08276 42.25462 40009 ft 434 kts 248°
2026-05-04 12:12 23.06467 42.20361 40009 ft 434 kts 248°
2026-05-04 12:14 22.97727 41.95963 40010 ft 433 kts 248°
2026-05-04 12:15 22.95538 41.89874 40011 ft 432 kts 248°
2026-05-04 12:15 22.93368 41.83838 40017 ft 432 kts 248°
2026-05-04 12:16 22.91177 41.77766 40010 ft 432 kts 248°
2026-05-04 12:16 22.88978 41.71680 40009 ft 434 kts 248°
2026-05-04 12:17 22.86765 41.65564 40005 ft 435 kts 248°
2026-05-04 12:17 22.84556 41.59462 40008 ft 435 kts 248°
2026-05-04 12:18 22.82355 41.53390 40021 ft 434 kts 248°
2026-05-04 12:18 22.80160 41.47341 40020 ft 433 kts 247°
2026-05-04 12:19 22.77952 41.41269 39999 ft 433 kts 248°
2026-05-04 12:19 22.75734 41.35178 40020 ft 435 kts 248°
2026-05-04 12:20 22.73512 41.29083 40014 ft 435 kts 247°
2026-05-04 12:20 22.71284 41.22988 40012 ft 435 kts 247°
2026-05-04 12:21 22.69058 41.16906 40013 ft 434 kts 247°
2026-05-04 12:21 22.66843 41.10863 40020 ft 434 kts 247°
2026-05-04 12:22 22.64613 41.04786 40012 ft 433 kts 247°
2026-05-04 12:22 22.62384 40.98728 40028 ft 434 kts 247°
2026-05-04 12:23 22.60205 40.92811 40031 ft 434 kts 247°
2026-05-04 12:23 22.58712 40.88761 39913 ft 432 kts 247°
2026-05-04 12:24 22.57601 40.85747 39674 ft 431 kts 247°
2026-05-04 12:24 22.56521 40.82821 39457 ft 431 kts 247°
2026-05-04 12:24 22.55804 40.80879 39312 ft 432 kts 247°
2026-05-04 12:24 22.54777 40.78100 39087 ft 432 kts 247°
2026-05-04 12:25 22.53661 40.75082 38871 ft 432 kts 248°
2026-05-04 12:25 22.52544 40.72063 38627 ft 432 kts 248°
2026-05-04 12:25 22.51423 40.69036 38350 ft 433 kts 248°
2026-05-04 12:25 22.50303 40.66011 38011 ft 433 kts 248°
2026-05-04 12:26 22.49186 40.63000 37424 ft 430 kts 248°
2026-05-04 12:26 22.48073 40.59999 36755 ft 429 kts 248°
2026-05-04 12:26 22.46960 40.57003 36076 ft 429 kts 248°
2026-05-04 12:26 22.45846 40.54004 35358 ft 430 kts 248°
2026-05-04 12:27 22.44731 40.51002 34604 ft 432 kts 249°
2026-05-04 12:27 22.43606 40.47978 33748 ft 435 kts 249°
2026-05-04 12:27 22.42489 40.44975 32865 ft 438 kts 249°
2026-05-04 12:27 22.41354 40.41928 32279 ft 433 kts 249°
2026-05-04 12:28 22.40232 40.38916 31698 ft 429 kts 248°
2026-05-04 12:28 22.39121 40.35937 31103 ft 426 kts 248°
2026-05-04 12:28 22.38018 40.32982 30512 ft 423 kts 248°
2026-05-04 12:28 22.36919 40.30038 29858 ft 420 kts 248°
2026-05-04 12:29 22.35828 40.27120 29241 ft 416 kts 248°
2026-05-04 12:29 22.34764 40.24273 28668 ft 412 kts 248°
2026-05-04 12:29 22.33696 40.21419 28084 ft 407 kts 248°
2026-05-04 12:29 22.32637 40.18591 27498 ft 404 kts 248°
2026-05-04 12:30 22.31586 40.15785 26932 ft 400 kts 249°
2026-05-04 12:30 22.30545 40.13005 26352 ft 398 kts 249°
2026-05-04 12:30 22.29510 40.10247 25767 ft 395 kts 249°
2026-05-04 12:30 22.28480 40.07502 25192 ft 393 kts 249°
2026-05-04 12:31 22.27468 40.04804 24628 ft 392 kts 249°
2026-05-04 12:31 22.26353 40.02123 24026 ft 392 kts 243°
2026-05-04 12:31 22.24942 39.99632 23759 ft 383 kts 238°
2026-05-04 12:31 22.23505 39.97277 23647 ft 365 kts 238°
2026-05-04 12:32 22.22158 39.95085 23496 ft 337 kts 238°
2026-05-04 12:32 22.19726 39.91115 23177 ft 312 kts 238°
2026-05-04 12:32 22.18524 39.89146 23030 ft 315 kts 238°
2026-05-04 12:33 22.17320 39.87174 22766 ft 313 kts 238°
2026-05-04 12:33 22.16124 39.85224 22316 ft 310 kts 238°
2026-05-04 12:33 22.14936 39.83281 21896 ft 310 kts 238°
2026-05-04 12:33 22.13744 39.81330 21495 ft 312 kts 238°
2026-05-04 12:34 22.12548 39.79375 21097 ft 312 kts 238°
2026-05-04 12:34 22.11351 39.77421 20702 ft 311 kts 238°
2026-05-04 12:34 22.10157 39.75472 20273 ft 311 kts 238°
2026-05-04 12:34 22.08964 39.73524 19866 ft 311 kts 238°
2026-05-04 12:35 22.07788 39.71605 19471 ft 310 kts 238°
2026-05-04 12:35 22.06597 39.69663 19080 ft 311 kts 238°
2026-05-04 12:35 22.05400 39.67713 18673 ft 311 kts 238°
2026-05-04 12:35 22.04206 39.65767 18252 ft 310 kts 238°
2026-05-04 12:36 22.03017 39.63831 17816 ft 309 kts 238°
2026-05-04 12:36 22.01837 39.61907 17422 ft 306 kts 238°
2026-05-04 12:36 22.00665 39.59999 17021 ft 304 kts 237°
2026-05-04 12:36 21.99496 39.58099 16641 ft 302 kts 237°
2026-05-04 12:37 21.98339 39.56216 16232 ft 300 kts 237°
2026-05-04 12:37 21.97205 39.54371 15849 ft 296 kts 237°
2026-05-04 12:37 21.96069 39.52524 15463 ft 295 kts 236°
2026-05-04 12:37 21.94940 39.50686 15093 ft 294 kts 236°
2026-05-04 12:38 21.93910 39.48757 14872 ft 300 kts 242°
2026-05-04 12:38 21.92989 39.46735 14605 ft 299 kts 243°
2026-05-04 12:38 21.92092 39.44709 14090 ft 300 kts 242°
2026-05-04 12:38 21.91193 39.42677 13651 ft 298 kts 241°
2026-05-04 12:39 21.90294 39.40655 13028 ft 301 kts 242°
2026-05-04 12:39 21.89389 39.38626 12509 ft 300 kts 243°
2026-05-04 12:39 21.88488 39.36604 12176 ft 298 kts 242°
2026-05-04 12:39 21.87610 39.34631 11786 ft 294 kts 243°
2026-05-04 12:40 21.86730 39.32663 11369 ft 293 kts 243°
2026-05-04 12:40 21.85859 39.30713 10963 ft 293 kts 243°
2026-05-04 12:40 21.84974 39.28733 10541 ft 294 kts 243°
2026-05-04 12:40 21.84101 39.26777 10324 ft 285 kts 244°
2026-05-04 12:41 21.83253 39.24895 10174 ft 273 kts 243°
2026-05-04 12:41 21.82131 39.23316 9988 ft 262 kts 218°
2026-05-04 12:41 21.80523 39.22585 9519 ft 253 kts 185°
2026-05-04 12:41 21.78787 39.22852 8800 ft 255 kts 162°
2026-05-04 12:42 21.77093 39.23514 8253 ft 262 kts 159°
2026-05-04 12:42 21.75388 39.24224 7864 ft 262 kts 158°
2026-05-04 12:42 21.73691 39.24918 7522 ft 257 kts 159°
2026-05-04 12:42 21.72039 39.25582 7124 ft 251 kts 159°
2026-05-04 12:43 21.70397 39.26242 6725 ft 254 kts 159°
2026-05-04 12:43 21.68736 39.26903 6358 ft 255 kts 159°
2026-05-04 12:43 21.67078 39.27562 6016 ft 254 kts 159°
2026-05-04 12:43 21.65421 39.28219 5751 ft 251 kts 157°
2026-05-04 12:44 21.63799 39.28861 5556 ft 246 kts 158°
2026-05-04 12:44 21.62225 39.29482 5407 ft 237 kts 156°
2026-05-04 12:44 21.60669 39.30099 5047 ft 241 kts 158°
2026-05-04 12:44 21.59097 39.30712 4764 ft 238 kts 159°
2026-05-04 12:45 21.57561 39.31310 4587 ft 233 kts 158°
2026-05-04 12:45 21.56046 39.31905 4234 ft 236 kts 158°
2026-05-04 12:45 21.54503 39.32509 3967 ft 234 kts 159°
2026-05-04 12:45 21.52998 39.33099 3784 ft 228 kts 159°
2026-05-04 12:46 21.51512 39.33679 3558 ft 225 kts 161°
2026-05-04 12:46 21.49984 39.33882 3279 ft 221 kts 192°
2026-05-04 12:46 21.48605 39.33271 2970 ft 212 kts 218°
2026-05-04 12:46 21.47730 39.32078 2477 ft 200 kts 260°
2026-05-04 12:47 21.47829 39.30689 2121 ft 186 kts 295°
2026-05-04 12:47 21.48375 39.29447 2001 ft 185 kts 300°
2026-05-04 12:47 21.48953 39.28217 1994 ft 183 kts 300°
2026-05-04 12:47 21.49504 39.27000 1995 ft 181 kts 298°
2026-05-04 12:48 21.50032 39.25790 1988 ft 176 kts 298°
2026-05-04 12:48 21.50650 39.24670 2001 ft 173 kts 313°
2026-05-04 12:48 21.51617 39.23952 1996 ft 170 kts 336°
2026-05-04 12:48 21.52742 39.23543 1995 ft 173 kts 341°
2026-05-04 12:49 21.53880 39.23113 1993 ft 172 kts 338°
2026-05-04 12:49 21.54997 39.22669 1998 ft 169 kts 336°
2026-05-04 12:49 21.56098 39.22226 1998 ft 169 kts 337°
2026-05-04 12:49 21.57184 39.21791 1950 ft 169 kts 338°
2026-05-04 12:50 21.58293 39.21353 1763 ft 167 kts 337°
2026-05-04 12:50 21.59349 39.20938 1549 ft 154 kts 337°
2026-05-04 12:50 21.60295 39.20565 1361 ft 137 kts 337°
2026-05-04 12:50 21.61137 39.20232 1180 ft 122 kts 337°
2026-05-04 12:51 21.61922 39.19920 1037 ft 120 kts 338°
2026-05-04 12:51 21.62705 39.19611 904 ft 120 kts 336°
2026-05-04 12:51 21.63509 39.19292 714 ft 126 kts 337°
2026-05-04 12:51 21.64344 39.18969 560 ft 128 kts 334°
2026-05-04 12:52 21.65167 39.18637 370 ft 125 kts 335°
2026-05-04 12:52 21.65997 39.18315 239 ft 129 kts 338°
2026-05-04 12:52 21.66843 39.17978 82 ft 128 kts 334°
2026-05-04 12:52 21.67610 39.17671 40 ft 94 kts 339°
2026-05-04 12:53 21.68141 39.17460 34 ft 61 kts 340°
2026-05-04 12:53 21.68323 39.17320 32 ft 28 kts 316°
2026-05-04 12:53 21.68383 39.17249 31 ft 4 kts 310°
2026-05-04 12:53 21.68409 39.17216 31 ft 7 kts 311°
2026-05-04 12:54 21.68447 39.17169 32 ft 9 kts 310°
2026-05-04 12:54 21.68494 39.17108 33 ft 12 kts 309°
2026-05-04 12:54 21.68502 39.17026 33 ft 11 kts 231°
2026-05-04 12:54 21.68431 39.17010 35 ft 11 kts 166°
2026-05-04 12:55 21.68356 39.17039 36 ft 13 kts 160°
2026-05-04 12:55 21.68255 39.17078 35 ft 18 kts 160°
2026-05-04 12:55 21.68127 39.17130 36 ft 21 kts 159°
2026-05-04 12:55 21.68008 39.17169 36 ft 15 kts 184°
2026-05-04 12:56 21.67988 39.17165 36 ft 1 kts 201°
2026-05-04 12:56 21.67951 39.17111 36 ft 13 kts 245°
2026-05-04 12:56 21.67914 39.17004 36 ft 20 kts 250°
2026-05-04 12:56 21.67862 39.16852 36 ft 17 kts 252°
2026-05-04 12:57 21.67813 39.16792 36 ft 10 kts 189°
2026-05-04 12:57 21.67736 39.16812 36 ft 14 kts 161°
2026-05-04 12:57 21.67632 39.16852 36 ft 18 kts 160°
2026-05-04 12:57 21.67498 39.16904 36 ft 23 kts 160°
2026-05-04 12:58 21.67378 39.16961 36 ft 10 kts 145°
2026-05-04 12:58 21.67331 39.17016 36 ft 9 kts 112°
2026-05-04 12:58 21.67316 39.17058 36 ft 5 kts 125°
2026-05-04 12:58 21.67285 39.17097 36 ft 3 kts 130°
2026-05-04 12:59 21.67273 39.17113 36 ft 2 kts 130°
2026-05-04 12:59 21.67265 39.17123 36 ft 0 kts 130°
2026-05-04 12:59 21.67265 39.17122 36 ft 0 kts 130°